Location: Casone le Fosse
(44.6547°N, 12.1103°E)
Time: 04:19:43
(UTC+00:00)

S3M - Pass Details

Date: 29 October 2020
Orbit: 950 x 1003 km, 83.0° (Epoch: 01 December)

Event Time Altitude Azimuth Distance (km) Brightness Sun altitude
Rises 17:12:36 0° 171° (S) 3,609 7.0 -12.7°
Reaches altitude 10° 17:15:07 10° 166° (SSE) 2,670 6.2 -13.1°
Maximum altitude 17:21:01 53° 91° (E) 1,162 4.0 -14.2°
Drops below altitude 10° 17:26:59 10° 17° (NNE) 2,710 6.1 -15.2°
Sets 17:29:33 0° 13° (NNE) 3,668 6.8 -15.7°
